Zurück zum Katalog

COSMOS 2499 DEB

AktivPO
NORAD 55722·DEBRIS·🇷🇺 Russia

Gestartet May 23, 2014 von Plesetsk Cosmodrome

Loading…

Nächste Überflüge (nächste 24 Stunden)

TLE

AlterndSource: Space-Track

Epoche: Sep 3, 2026, 14:14 UTC

1 55722U 14028AJ  26246.59360392  .00001461  00000-0  59846-2 0  9999
2 55722  82.3593 197.2106 0116767 210.1476 149.2872 12.82539607 92410

Verfolge COSMOS 2499 DEB in Echtzeit mit AllMySat

Download on the App Store